Theta_e
313 313 312 312 311 311 310 312 309 310 314 322 328 332 335 339 341 343 345 348 351 351 352 349 351 355 359 364 370 370 370 369 368 371 373 373 372 370 372 366 363 364 360 355
310 311 312 311 313 312 311 312 312 314 318 331 334 336 336 337 338 338 339 340 346 350 355 355 353 354 358 363 370 374 370 370 374 373 372 370 371 368 370 364 362 359 355 352
307 312 311 308 313 312 312 314 313 313 324 332 332 332 334 335 336 336 337 338 340 341 345 351 355 356 357 362 364 365 364 364 366 366 365 367 367 367 364 360 355 352 354 351
310 313 303 316 320 320 317 318 319 322 325 329 332 334 335 336 336 336 337 338 341 341 340 346 353 356 358 360 363 366 359 361 360 360 367 367 367 366 361 358 355 353 352 350
309 308 312 314 317 315 314 315 321 320 325 326 328 329 333 335 335 335 336 338 339 341 342 347 355 360 363 361 360 360 352 343 348 356 359 359 362 364 359 357 355 355 353 351
312 306 302 313 319 322 321 312 323 323 324 322 325 319 328 334 335 336 337 339 340 342 345 344 349 355 361 363 363 361 362 364 354 362 365 363 364 364 361 358 353 351 347 348
311 310 312 320 323 323 309 317 325 325 325 326 324 331 334 334 335 337 337 336 338 341 344 353 358 361 359 360 361 365 366 366 368 364 362 361 364 359 354 354 353 352 348 347
313 310 307 325 322 317 327 332 331 329 329 329 331 331 332 333 334 334 335 335 336 339 343 345 353 357 357 357 364 368 372 369 371 371 362 361 360 352 347 347 348 347 346 345
318 316 327 328 328 332 331 329 334 335 333 331 329 330 332 333 333 332 333 334 335 337 341 343 350 356 354 359 363 365 366 368 367 366 357 349 352 348 343 343 338 341 342 342
318 321 325 327 330 331 332 331 333 334 333 332 330 331 330 331 331 331 332 334 335 337 339 343 351 354 358 360 363 362 362 363 361 356 347 346 347 343 339 337 338 339 339 339
319 323 326 328 330 330 331 331 331 333 332 331 331 331 332 332 332 333 334 336 338 339 340 344 352 353 358 360 360 358 359 356 345 343 338 339 340 341 340 338 334 337 337 336
317 326 327 329 331 331 330 330 331 332 332 333 334 333 334 333 334 335 336 339 339 341 341 341 349 352 359 359 358 355 355 346 342 339 336 337 336 328 313 318 315 313 314 327
323 328 328 329 329 330 329 331 332 333 334 334 335 334 334 333 336 332 337 338 341 343 346 351 354 353 358 357 354 353 349 346 342 336 337 338 333 330 327 319 311 313 309 312
322 321 320 323 321 325 329 328 327 328 329 330 331 333 333 333 333 333 336 338 342 345 347 348 349 353 356 353 354 349 347 324 343 339 338 333 331 330 330 330 330 329 312 312
325 325 323 322 320 321 323 324 322 323 325 326 327 328 329 328 332 336 338 339 341 341 347 346 349 352 354 351 351 349 345 346 344 344 338 333 333 331 331 330 328 322 315 306
330 328 326 325 326 324 323 321 320 321 322 323 324 325 327 333 337 339 340 341 339 337 346 349 352 352 354 351 349 349 347 331 336 336 332 329 328 326 323 322 321 317 320 314
325 326 326 324 324 324 323 324 325 327 330 330 333 337 338 339 341 341 342 341 346 350 350 353 352 354 352 348 345 346 344 339 331 332 328 327 325 324 324 323 321 319 320 320
328 329 330 331 330 330 330 332 332 333 334 337 339 340 340 339 342 345 343 348 348 347 352 354 354 353 351 348 346 345 342 336 336 333 331 329 328 327 327 326 325 324 323 313
328 328 329 330 331 331 332 333 333 335 337 338 338 338 339 340 341 343 345 345 344 344 344 346 339 344 347 346 344 344 342 337 335 333 334 328 330 330 329 328 328 327 322 314
326 327 328 328 330 331 331 334 335 336 337 339 340 341 340 342 344 344 345 347 342 340 345 347 348 348 347 346 336 344 343 339 337 333 330 334 332 330 329 322 331 332 327 321
325 326 326 326 328 330 332 334 335 335 338 340 340 340 340 341 342 343 341 342 341 343 343 337 345 343 343 347 343 343 342 340 335 332 330 332 333 333 331 333 335 335 331 327
326 324 325 327 327 328 332 334 337 337 337 338 339 340 340 340 340 340 341 339 340 322 337 341 341 336 343 332 344 342 340 336 333 332 332 332 332 335 334 336 335 331 328 325
325 326 326 327 328 329 332 335 335 337 337 337 337 338 339 337 337 338 333 341 339 328 337 339 329 325 325 340 341 339 335 333 333 333 332 334 333 337 336 333 332 330 330 328
328 327 327 328 330 329 331 335 334 336 338 339 341 342 338 335 336 338 339 328 323 323 333 327 324 319 319 337 338 337 335 335 335 335 334 321 340 337 336 333 332 331 330 325
328 327 327 328 327 330 332 336 332 332 335 338 337 338 339 350 344 343 339 336 321 328 332 318 317 318 325 333 336 335 337 339 338 337 336 339 336 335 331 331 329 329 328 327
328 325 325 328 327 329 331 328 328 329 330 329 332 335 335 340 343 339 337 329 333 326 330 325 325 323 323 325 333 336 339 337 334 333 333 335 333 332 332 331 330 329 329 328
326 315 324 326 327 329 328 328 327 328 327 331 330 333 333 333 335 332 324 333 330 327 324 323 324 320 320 321 326 330 329 330 324 332 334 335 334 333 331 330 329 329 329 329
Wind_Speed
9 7 2 4 9 9 13 12 8 8 16 14 11 11 11 10 8 9 8 10 8 9 4 4 7 8 10 10 10 11 12 12 13 13 11 11 11 11 11 10 10 11 10 9
4 1 5 9 12 6 12 4 5 14 17 16 15 10 10 10 10 10 9 8 8 7 5 4 6 9 10 11 11 9 9 10 10 12 13 13 13 13 12 13 9 9 10 11
8 5 3 12 10 11 9 8 13 8 19 16 12 11 9 7 8 7 7 6 5 6 7 6 1 7 10 11 8 7 4 5 7 6 9 10 12 13 14 13 13 11 11 10
10 9 10 12 6 7 3 9 8 9 8 14 11 11 8 6 7 6 6 5 5 6 7 8 8 2 6 7 8 7 9 8 3 7 9 11 13 13 14 12 13 12 13 13
4 9 5 11 10 8 8 8 9 7 9 7 4 5 12 9 7 6 5 4 6 7 8 6 4 4 4 5 6 7 7 8 21 13 10 13 14 14 13 12 13 12 14 14
8 12 7 22 14 6 5 7 4 7 8 4 3 8 11 8 7 6 4 4 6 7 7 7 7 4 5 5 6 8 10 14 12 10 12 14 14 15 14 14 14 12 14 12
10 10 5 12 9 5 6 4 6 7 6 5 3 8 7 5 5 5 3 4 7 6 6 1 7 8 8 7 6 5 10 12 13 14 13 11 13 13 15 14 14 14 16 14
12 10 6 11 4 8 7 4 6 2 2 1 3 3 3 3 3 3 6 8 9 6 6 7 2 5 7 8 7 6 4 6 11 12 11 12 16 14 11 10 9 13 13 11
7 5 2 5 4 7 7 2 1 1 4 4 5 4 4 1 2 5 7 7 9 8 7 9 5 5 9 8 8 10 8 6 9 13 13 13 16 16 12 11 9 11 12 11
10 6 5 6 2 1 1 4 2 5 5 3 4 2 4 5 5 6 7 7 9 9 10 10 8 5 7 8 8 8 10 5 6 8 10 12 11 12 12 13 14 14 13 13
6 7 2 3 1 3 0 3 4 2 4 5 5 6 6 5 5 6 7 7 9 10 10 10 9 7 8 7 7 9 9 7 6 6 9 10 10 9 10 10 8 10 11 9
6 10 7 7 4 3 5 4 5 7 7 8 9 9 8 7 7 6 7 9 10 11 12 13 11 8 5 6 7 7 5 4 5 6 8 7 8 5 11 4 4 4 3 6
8 10 7 8 8 8 8 4 6 6 8 10 10 9 10 8 6 5 9 11 11 12 12 11 9 10 4 5 5 5 6 5 4 6 7 7 6 7 9 3 4 5 2 3
9 10 11 12 10 11 7 8 9 11 12 12 13 12 10 10 11 10 11 12 13 12 13 11 10 10 4 7 5 5 5 3 5 5 5 6 8 9 8 10 10 9 3 3
6 10 12 11 10 11 14 14 17 17 14 14 14 15 11 12 10 11 12 13 14 13 12 10 11 7 6 8 7 6 7 4 7 4 4 7 9 9 7 9 8 8 7 7
9 8 10 10 11 11 11 10 13 12 13 13 14 15 12 9 10 13 13 13 14 12 12 9 7 6 8 9 9 6 5 5 4 3 2 2 0 3 6 7 8 8 8 9
9 8 7 10 10 10 11 11 11 11 11 11 11 11 11 12 13 14 14 15 13 10 11 10 9 6 7 9 10 4 4 4 6 4 2 2 2 4 8 9 9 8 8 9
8 9 13 13 11 11 11 12 12 11 10 10 10 11 12 13 12 12 13 14 13 12 10 12 8 8 8 9 7 5 6 7 5 6 4 4 5 5 5 9 9 9 10 11
7 8 9 11 10 11 12 12 12 13 12 12 12 13 13 14 14 14 13 13 12 13 12 14 12 12 12 10 7 7 8 9 8 5 5 7 7 7 7 9 10 12 13 14
6 8 10 11 12 12 11 12 12 12 12 12 11 13 13 12 12 12 13 11 12 11 14 4 6 7 11 9 11 8 8 8 7 6 5 5 5 7 8 10 10 13 15 14
6 7 9 11 11 13 12 10 12 12 12 12 12 12 12 12 12 12 12 8 9 7 7 4 7 9 12 8 10 9 8 7 7 7 6 7 9 8 11 12 13 13 14 14
9 11 11 12 12 13 12 11 13 10 11 12 12 11 11 12 12 10 9 9 8 5 7 8 10 4 7 2 7 7 7 8 8 8 7 7 10 11 14 13 13 10 11 12
9 11 12 12 12 13 12 7 11 12 13 12 11 11 10 8 9 8 9 3 6 9 9 10 8 3 5 6 7 7 9 10 10 10 10 11 11 11 12 10 10 11 11 12
9 10 12 13 11 12 10 10 10 12 12 11 11 12 10 9 9 2 2 7 6 7 6 8 10 9 8 6 6 6 8 10 11 10 11 11 15 8 9 11 10 9 9 9
10 12 13 11 11 5 9 10 8 12 8 9 9 8 8 4 4 6 5 5 2 7 6 6 9 10 5 7 7 8 10 9 9 8 10 11 9 8 9 9 9 9 9 10
13 9 11 9 10 6 12 9 7 9 10 10 8 10 12 7 7 5 3 3 4 5 5 4 4 6 7 7 7 9 7 5 3 5 12 8 9 9 9 9 9 9 9 10
12 4 10 7 4 3 8 8 9 8 9 9 10 8 8 8 8 4 2 5 5 5 4 4 5 7 8 8 8 5 6 4 6 6 9 5 6 7 8 8 8 8 8 8
Wind_Direction
49 74 34 328 185 199 269 281 51 20 116 112 103 97 94 96 91 91 75 59 45 26 31 226 213 200 217 215 216 204 206 199 192 178 181 186 184 174 177 163 171 172 170 154
166 199 265 205 245 252 228 276 278 186 107 119 120 120 109 108 105 97 81 60 35 17 17 355 223 213 221 222 211 216 212 207 196 178 182 181 169 178 168 170 168 155 167 166
246 136 260 247 193 215 204 206 245 232 124 134 140 134 124 119 105 85 66 55 20 337 338 15 62 215 224 221 215 214 201 242 256 233 196 201 180 170 167 159 157 171 171 168
104 257 229 91 14 29 277 194 273 137 100 101 122 131 124 108 103 88 64 33 355 322 324 347 357 322 226 228 209 173 165 84 332 244 202 198 190 178 163 167 166 161 167 171
234 226 174 164 166 206 219 254 210 264 104 125 136 140 160 117 107 88 66 24 348 323 330 329 323 313 284 246 211 173 196 175 199 210 194 210 197 183 168 166 166 173 165 165
212 280 171 261 146 131 4 262 193 201 148 154 161 248 88 105 115 105 78 17 345 354 316 344 320 319 292 270 207 218 216 199 205 216 219 193 189 180 170 170 173 164 163 170
244 229 272 33 108 127 214 22 53 169 194 169 242 65 104 114 81 65 45 349 338 3 7 70 317 316 303 294 282 245 211 208 200 199 202 186 193 179 175 179 163 164 163 170
253 265 264 349 181 241 54 44 334 282 41 149 114 126 93 83 25 347 343 341 346 343 348 321 219 278 288 299 311 296 267 264 214 202 180 187 175 161 168 150 156 161 157 161
341 67 121 343 34 25 355 43 298 134 162 172 192 171 144 216 298 313 326 332 324 327 323 315 13 346 309 310 306 301 278 238 191 173 172 166 176 165 161 157 168 168 176 180
283 289 30 340 71 352 27 320 209 203 183 191 208 169 248 263 293 329 324 321 326 328 326 330 327 311 287 293 293 279 269 226 209 173 184 181 178 180 172 174 188 181 178 181
265 247 213 143 39 43 236 260 242 206 235 222 250 257 262 278 295 307 327 325 329 321 313 311 298 292 293 299 298 268 262 201 180 181 184 181 191 191 186 194 192 188 189 193
46 38 357 85 60 336 300 267 272 281 257 252 261 277 292 294 306 328 322 324 306 307 304 307 304 295 290 282 275 264 241 182 185 182 187 192 191 161 43 343 194 77 345 205
353 353 334 314 306 293 297 299 307 290 277 278 284 289 287 297 307 309 280 291 311 311 303 293 287 273 274 255 251 255 253 202 191 203 189 195 175 184 185 71 73 80 16 276
311 303 293 290 288 296 213 273 289 271 272 281 283 285 295 292 280 297 309 311 305 304 301 295 270 261 237 251 230 229 258 145 219 204 195 184 185 186 188 187 182 184 81 173
335 318 309 308 293 291 295 293 280 276 278 279 282 286 288 294 300 307 306 301 301 298 295 278 260 243 221 248 232 283 271 187 216 224 221 215 195 188 191 172 165 143 132 82
311 316 306 276 282 279 286 289 303 293 292 292 292 287 295 318 316 303 297 297 295 292 309 286 250 254 192 230 245 223 266 66 108 159 180 171 176 139 139 138 141 141 164 153
327 343 334 320 335 330 320 298 291 299 312 315 320 325 322 304 291 286 288 296 297 295 276 266 261 228 223 232 248 213 178 162 132 122 176 170 159 176 162 152 147 161 175 170
338 326 335 333 333 323 321 321 314 308 303 310 312 292 285 287 292 294 292 290 277 275 278 252 245 245 220 231 246 178 171 161 164 157 168 185 189 177 168 154 157 174 169 152
346 338 329 320 327 322 314 317 315 309 307 303 301 297 298 298 296 294 293 286 283 281 263 252 207 200 241 212 208 213 169 179 165 177 184 175 174 182 171 173 181 177 161 158
6 343 336 330 322 315 312 308 309 305 297 295 297 295 295 301 310 310 303 295 286 290 300 319 244 232 250 213 178 218 202 201 176 149 171 201 186 182 192 192 197 203 162 165
344 338 342 332 322 306 304 310 307 305 308 299 288 290 298 305 304 302 293 290 283 321 328 308 272 260 254 208 178 218 204 187 172 159 178 196 201 187 200 205 217 193 157 161
346 337 333 326 317 308 308 317 309 306 303 302 302 301 298 296 282 268 261 268 300 355 326 294 284 303 285 119 222 204 189 179 175 169 177 212 221 214 200 194 200 169 162 163
331 327 325 321 316 307 317 324 306 303 300 302 299 300 296 297 295 297 292 109 318 22 323 292 2 345 192 210 225 193 176 174 181 187 187 205 229 223 194 182 178 175 174 171
300 314 320 308 306 309 325 305 305 309 297 300 285 273 282 292 308 319 44 76 49 343 325 352 322 294 220 228 214 196 183 189 192 195 199 203 230 197 169 176 185 174 178 178
306 309 301 305 308 316 294 280 308 294 283 265 294 277 306 313 282 321 350 353 340 319 358 17 348 334 270 253 213 201 205 201 199 195 210 218 191 158 174 177 187 177 180 183
294 299 306 316 297 327 292 313 332 319 313 307 341 345 325 343 335 321 69 3 6 343 26 349 346 355 333 320 238 205 210 186 133 241 239 168 162 165 180 180 186 178 188 185
284 285 295 283 340 294 279 324 304 293 322 356 334 325 338 326 323 304 322 42 49 22 0 14 11 11 341 341 30 54 71 51 32 300 275 135 150 160 175 181 185 186 196 202